User: anonymous   Login
Location: Unspecified
(64.9000°N, 0.0000°E)
Time: 03:44:10
(UTC+00:00)
Language:

SR - Orbit

View from above orbital plane
View from above orbital plane
View from above satellite
View from above satellite

Ground track
Ground track

The orbit data is extracted from the following two-line orbital elements,

1    46U 60007B   19168.84708490 -.00000098  00000-0  35764-5 0  9996
2    46  66.6908 314.3674 0205121  42.1164 319.5501 14.49230563 86122
Epoch (UTC): 17 June 2019 20:19:48
Eccentricity: 0.0205121
inclination: 66.6908°
perigee height: 582 km
apogee height: 874 km
right ascension of ascending node: 314.3674°
argument of perigee: 42.1164°
revolutions per day: 14.49230563
mean anomaly at epoch: 319.5501°
orbit number at epoch: 8612

The dashed part of the orbit path shows where the satellite is in the earth's shadow,  

DLR